| time (UTC) | temp F | wind direction | speed MPH | gust MPH | rain 1hr in | rain 24hr in | rain mn in | humidity % | barometer mb |
| 20260507163016 | 87 | 73 | 5.0 | 15.0 | 0.00 | 0.21 | 0.21 | 71 | 1019.4 |
| 20260507161518 | 87 | 110 | 4.0 | 11.0 | 0.00 | 0.21 | 0.21 | 71 | 1019.4 |
| 20260507160026 | 86 | 128 | 6.0 | 14.0 | 0.00 | 0.21 | 0.21 | 71 | 1019.7 |
| 20260507154513 | 87 | 130 | 6.0 | 13.0 | 0.00 | 0.21 | 0.21 | 72 | 1019.8 |
| 20260507153017 | 86 | 146 | 6.0 | 14.0 | 0.00 | 0.21 | 0.21 | 72 | 1019.9 |
| 20260507151509 | 86 | 81 | 7.0 | 15.0 | 0.00 | 0.21 | 0.21 | 72 | 1020.1 |
| 20260507150008 | 87 | 148 | 7.0 | 12.0 | 0.00 | 0.21 | 0.21 | 73 | 1020.3 |
| 20260507144517 | 87 | 135 | 7.0 | 14.0 | 0.00 | 0.21 | 0.21 | 72 | 1020.5 |
| 20260507143007 | 86 | 87 | 4.0 | 17.0 | 0.00 | 0.21 | 0.21 | 73 | 1020.3 |
| 20260507141504 | 87 | 104 | 6.0 | 12.0 | 0.00 | 0.21 | 0.21 | 73 | 1020.2 |
| 20260507140001 | 85 | 109 | 7.0 | 13.0 | 0.00 | 0.21 | 0.21 | 75 | 1020.3 |
| 20260507134609 | 83 | 93 | 4.0 | 12.0 | 0.00 | 0.21 | 0.21 | 77 | 1020.0 |
| 20260507133108 | 85 | 140 | 4.0 | 10.0 | 0.00 | 0.21 | 0.21 | 73 | 1020.0 |
| 20260507133003 | 85 | 138 | 5.0 | 11.0 | 0.00 | 0.21 | 0.21 | 73 | 1020.0 |
| 20260507131600 | 84 | 150 | 6.0 | 12.0 | 0.00 | 0.21 | 0.21 | 74 | 1019.9 |
| 20260507130052 | 81 | 93 | 3.0 | 9.0 | 0.00 | 0.21 | 0.21 | 81 | 1019.7 |
| 20260507124553 | 81 | 42 | 4.0 | 9.0 | 0.00 | 0.21 | 0.21 | 82 | 1019.7 |
| 20260507123052 | 80 | 115 | 1.0 | 8.0 | 0.00 | 0.21 | 0.21 | 82 | 1019.6 |
| 20260507121549 | 80 | 109 | 1.0 | 7.0 | 0.00 | 0.21 | 0.21 | 83 | 1019.5 |
| 20260507120048 | 80 | 150 | 3.0 | 11.0 | 0.00 | 0.21 | 0.21 | 83 | 1019.5 |
| 20260507114554 | 79 | 164 | 5.0 | 8.0 | 0.00 | 0.21 | 0.21 | 85 | 1019.4 |
| 20260507113050 | 79 | 139 | 5.0 | 8.0 | 0.00 | 0.21 | 0.21 | 85 | 1019.3 |
| 20260507111556 | 80 | 145 | 1.0 | 9.0 | 0.00 | 0.21 | 0.21 | 84 | 1019.2 |
| 20260507110042 | 79 | 133 | 3.0 | 9.0 | 0.00 | 0.21 | 0.21 | 87 | 1019.0 |
| 20260507104541 | 77 | 171 | 3.0 | 8.0 | 0.00 | 0.21 | 0.21 | 88 | 1019.0 |
| 20260507103040 | 77 | 161 | 3.0 | 10.0 | 0.00 | 0.21 | 0.21 | 88 | 1018.9 |
| 20260507101543 | 77 | 157 | 3.0 | 9.0 | 0.00 | 0.21 | 0.21 | 89 | 1018.9 |
| 20260507100040 | 76 | 156 | 2.0 | 7.0 | 0.00 | 0.21 | 0.21 | 90 | 1018.8 |
| 20260507094541 | 76 | 146 | 1.0 | 8.0 | 0.00 | 0.21 | 0.21 | 90 | 1018.7 |
| 20260507093044 | 76 | 147 | 1.0 | 7.0 | 0.00 | 0.21 | 0.21 | 91 | 1018.8 |
| 20260507091539 | 76 | 158 | 0.0 | 9.0 | 0.00 | 0.21 | 0.21 | 91 | 1018.6 |
| 20260507090037 | 76 | 180 | 0.0 | 8.0 | 0.00 | 0.21 | 0.21 | 92 | 1018.6 |
| 20260507084540 | 76 | 171 | 2.0 | 7.0 | 0.00 | 0.21 | 0.21 | 92 | 1018.6 |
| 20260507083038 | 76 | 175 | 0.0 | 6.0 | 0.00 | 0.21 | 0.21 | 92 | 1018.5 |
| 20260507081537 | 76 | 169 | 1.0 | 6.0 | 0.00 | 0.21 | 0.21 | 92 | 1018.3 |
| 20260507080036 | 76 | 173 | 2.0 | 7.0 | 0.02 | 0.21 | 0.21 | 93 | 1018.4 |
| 20260507074533 | 76 | 109 | 3.0 | 12.0 | 0.04 | 0.21 | 0.21 | 93 | 1018.3 |
| 20260507073031 | 76 | 165 | 4.0 | 9.0 | 0.04 | 0.21 | 0.21 | 93 | 1018.4 |
| 20260507071529 | 76 | 164 | 2.0 | 7.0 | 0.07 | 0.21 | 0.21 | 93 | 1018.7 |
| 20260507070026 | 76 | 155 | 3.0 | 9.0 | 0.09 | 0.19 | 0.19 | 92 | 1018.8 |
| 20260507064526 | 76 | 155 | 3.0 | 8.0 | 0.17 | 0.17 | 0.17 | 92 | 1018.9 |
| 20260507063024 | 76 | 140 | 0.0 | 7.0 | 0.17 | 0.17 | 0.17 | 92 | 1018.9 |
| 20260507061523 | 76 | 206 | 3.0 | 8.0 | 0.14 | 0.14 | 0.14 | 92 | 1019.0 |
| 20260507060018 | 76 | 207 | 6.0 | 11.0 | 0.09 | 0.09 | 0.09 | 89 | 1019.3 |
| 20260507054516 | 78 | 192 | 4.0 | 10.0 | 0.00 | 0.00 | 0.00 | 88 | 1019.4 |
| 20260507053013 | 78 | 98 | 3.0 | 10.0 | 0.00 | 0.00 | 0.00 | 86 | 1019.5 |
| 20260507051512 | 79 | 80 | 5.0 | 12.0 | 0.00 | 0.00 | 0.00 | 87 | 1019.8 |
| 20260507050009 | 79 | 126 | 4.0 | 10.0 | 0.00 | 0.00 | 0.00 | 86 | 1020.1 |
| 20260507044507 | 79 | 84 | 5.0 | 12.0 | 0.00 | 0.00 | 0.00 | 87 | 1020.4 |
| 20260507043005 | 79 | 92 | 6.0 | 12.0 | 0.00 | 0.00 | 0.00 | 87 | 1020.5 |
| 20260507041508 | 79 | 117 | 3.0 | 10.0 | 0.00 | 0.00 | 0.00 | 88 | 1020.5 |
| 20260507040101 | 79 | 77 | 5.0 | 13.0 | 0.00 | 0.00 | 0.00 | 87 | 1020.6 |
| 20260507034607 | 79 | 103 | 5.0 | 13.0 | 0.00 | 0.00 | 0.00 | 87 | 1020.7 |
| 20260507033055 | 79 | 80 | 4.0 | 10.0 | 0.00 | 0.00 | 0.00 | 86 | 1020.8 |
| 20260507031552 | 79 | 113 | 2.0 | 12.0 | 0.00 | 0.00 | 0.00 | 86 | 1020.9 |
| 20260507030056 | 79 | 101 | 4.0 | 9.0 | 0.00 | 0.00 | 0.00 | 86 | 1020.9 |
| 20260507024549 | 79 | 84 | 3.0 | 10.0 | 0.00 | 0.00 | 0.00 | 86 | 1021.1 |
| 20260507023151 | 79 | 89 | 2.0 | 9.0 | 0.00 | 0.00 | 0.00 | 86 | 1021.0 |
| 20260507021552 | 79 | 82 | 0.0 | 10.0 | 0.00 | 0.00 | 0.00 | 86 | 1021.0 |
| 20260507020047 | 79 | 103 | 3.0 | 11.0 | 0.00 | 0.00 | 0.00 | 86 | 1020.9 |
| 20260507014557 | 79 | 138 | 4.0 | 11.0 | 0.00 | 0.00 | 0.00 | 86 | 1020.7 |
| 20260507013107 | 79 | 107 | 4.0 | 9.0 | 0.00 | 0.00 | 0.00 | 87 | 1020.4 |
| 20260507011546 | 79 | 101 | 5.0 | 10.0 | 0.00 | 0.00 | 0.00 | 87 | 1020.4 |
| 20260507010045 | 79 | 150 | 2.0 | 9.0 | 0.00 | 0.00 | 0.00 | 87 | 1020.2 |
| 20260507004545 | 79 | 186 | 1.0 | 9.0 | 0.00 | 0.00 | 0.00 | 87 | 1020.0 |
| 20260507003044 | 78 | 160 | 3.0 | 7.0 | 0.00 | 0.00 | 0.00 | 87 | 1020.0 |
| 20260507001600 | 78 | 160 | 1.0 | 6.0 | 0.00 | 0.00 | 0.00 | 87 | 1019.9 |
| 20260507000042 | 79 | 161 | 0.0 | 5.0 | 0.00 | 0.00 | 0.00 | 87 | 1019.7 |
| 20260506234542 | 79 | 161 | 3.0 | 7.0 | 0.00 | 0.00 | 0.00 | 87 | 1019.4 |
| 20260506233045 | 79 | 162 | 3.0 | 9.0 | 0.00 | 0.00 | 0.00 | 86 | 1019.3 |
| 20260506231547 | 79 | 159 | 3.0 | 9.0 | 0.00 | 0.00 | 0.00 | 86 | 1019.3 |
| 20260506230040 | 79 | 142 | 2.0 | 7.0 | 0.00 | 0.00 | 0.00 | 85 | 1019.2 |
| 20260506224540 | 79 | 162 | 1.0 | 9.0 | 0.00 | 0.00 | 0.00 | 84 | 1019.0 |
| 20260506223049 | 79 | 115 | 1.0 | 7.0 | 0.00 | 0.00 | 0.00 | 84 | 1018.9 |
| 20260506221538 | 80 | 165 | 6.0 | 9.0 | 0.00 | 0.00 | 0.00 | 83 | 1018.7 |
| 20260506220038 | 81 | 91 | 3.0 | 10.0 | 0.00 | 0.00 | 0.00 | 83 | 1018.8 |
| 20260506214540 | 81 | 139 | 3.0 | 8.0 | 0.00 | 0.00 | 0.00 | 82 | 1018.7 |
| 20260506213038 | 81 | 111 | 4.0 | 11.0 | 0.00 | 0.00 | 0.00 | 82 | 1018.5 |
| 20260506211535 | 81 | 108 | 4.0 | 13.0 | 0.00 | 0.00 | 0.00 | 83 | 1018.7 |
| 20260506210039 | 82 | 114 | 5.0 | 11.0 | 0.00 | 0.00 | 0.00 | 81 | 1018.6 |
| 20260506204535 | 81 | 121 | 5.0 | 14.0 | 0.00 | 0.00 | 0.00 | 80 | 1018.5 |
| 20260506203042 | 81 | 117 | 6.0 | 12.0 | 0.00 | 0.00 | 0.00 | 83 | 1018.4 |
| 20260506201533 | 81 | 83 | 7.0 | 14.0 | 0.00 | 0.00 | 0.00 | 82 | 1018.4 |
| 20260506200035 | 82 | 98 | 6.0 | 13.0 | 0.00 | 0.00 | 0.00 | 82 | 1018.6 |
| 20260506194530 | 81 | 96 | 7.0 | 16.0 | 0.00 | 0.00 | 0.00 | 83 | 1018.6 |
| 20260506193029 | 81 | 62 | 6.0 | 14.0 | 0.00 | 0.00 | 0.00 | 82 | 1018.6 |
| 20260506191532 | 82 | 121 | 6.0 | 14.0 | 0.00 | 0.00 | 0.00 | 81 | 1018.8 |
| 20260506190128 | 82 | 96 | 6.0 | 16.0 | 0.00 | 0.00 | 0.00 | 82 | 1019.0 |
| 20260506184526 | 82 | 98 | 6.0 | 13.0 | 0.00 | 0.00 | 0.00 | 81 | 1019.0 |
| 20260506183026 | 82 | 84 | 7.0 | 15.0 | 0.00 | 0.00 | 0.00 | 81 | 1019.2 |
| 20260506181531 | 82 | 130 | 6.0 | 15.0 | 0.00 | 0.00 | 0.00 | 80 | 1019.5 |
| 20260506180033 | 83 | 91 | 7.0 | 16.0 | 0.00 | 0.00 | 0.00 | 79 | 1019.7 |
| 20260506174526 | 83 | 136 | 6.0 | 12.0 | 0.00 | 0.00 | 0.00 | 81 | 1019.9 |
| 20260506173022 | 82 | 80 | 8.0 | 16.0 | 0.00 | 0.00 | 0.00 | 81 | 1020.0 |
| 20260506171537 | 83 | 63 | 8.0 | 17.0 | 0.00 | 0.00 | 0.00 | 80 | 1020.3 |
| 20260506170022 | 84 | 109 | 7.0 | 16.0 | 0.00 | 0.00 | 0.00 | 79 | 1020.5 |
| 20260506164522 | 84 | 82 | 7.0 | 17.0 | 0.00 | 0.00 | 0.00 | 78 | 1020.7 |